Location: Newark
(7.0858°N, 171.3717°E)
Time: 09:09:21
(UTC+00:00)

S-56A Canister/Altair - Pass Details

Date: 26 November 2020
Orbit: 633 x 2499 km, 38.9° (Epoch: 27 January)

Event Time Altitude Azimuth Distance (km) Brightness Sun altitude
Rises 17:34:18 0° 292° (WNW) 2,924 - -13.6°
Reaches altitude 10° 17:36:38 10° 281° (W) 2,074 - -13.1°
Exits shadow 17:37:49 17° 271° (W) 1,705 8.7 -12.8°
Maximum altitude 17:40:47 32° 218° (SW) 1,275 8.5 -12.1°
Drops below altitude 10° 17:46:00 10° 156° (SSE) 2,626 10.9 -10.9°
Sets 17:49:21 0° 146° (SSE) 3,854 12.1 -10.1°
